Bellefontaine, OH

1:55 PM EDT on June 23, 2017 (GMT -0400)
Bellefontaine

Weather History for KEDJ - October, 2012

Change the Weather History Date:

Wednesday, October 17, 2012

  Actual Average (KDLZ) Record (KDLZ)
Temperature  
Mean Temperature 61 °F -  
Max Temperature 71 °F 62 °F 87 °F (1938)
Min Temperature 51 °F 39 °F 23 °F (1977)
Degree Days  
Heating Degree Days 4    
Growing Degree Days 11 (Base 50)    
Moisture  
Dew Point 44 °F    
Average Humidity 55    
Maximum Humidity 77    
Minimum Humidity 35    
Precipitation  
Precipitation 0.00 in - - ()
Sea Level Pressure  
Sea Level Pressure 29.72 in    
Wind  
Wind Speed 12 mph (SSE)    
Max Wind Speed 18 mph    
Max Gust Speed 30 mph    
Visibility 10 miles    
Events      
Averages and records for this station are not official NWS values.
T = Trace of Precipitation, MM = Missing Value Source: NWS Daily Summary

Daily Weather History Graph

Daily Weather History Graph

Search for Another Location

Airport or City:

Trip Planner

Search our weather history database for the weather conditions in past years. The results will help you decide how hot, cold, wet, or windy it might be!

Date:

Astronomy

Oct. 17, 2012 Rise Set
Actual Time 7:48 AM EDT 6:51 PM EDT
Civil Twilight 7:21 AM EDT 7:19 PM EDT
Nautical Twilight 6:49 AM EDT 7:50 PM EDT
Astronomical Twilight 6:18 AM EDT 8:22 PM EDT
Moon 10:22 AM EDT (10/17) 8:26 PM EDT (10/17)
Length of Visible Light 11h 57m
Length of Day
11h 02m
Waxing Crescent, 7% of the Moon is Illuminated
Oct 17
Waxing Crescent
Oct 21
First Quarter
Oct 29
Full
Nov 6
Last Quarter
Nov 13
New

Hourly Weather History & Observations

Time (EDT) Temp. Dew Point Humidity Pressure Visibility Wind Dir Wind Speed Gust Speed Precip Events Conditions
12:10 AM 53.6 °F 39.2 °F 58% 29.79 in 10.0 mi SSE 13.8 mph - 0.00 in   Clear
12:30 AM 53.6 °F 39.2 °F 58% 29.79 in 10.0 mi SSE 12.7 mph 17.3 mph 0.00 in   Partly Cloudy
12:50 AM 53.6 °F 39.2 °F 58% 29.79 in 10.0 mi SSE 11.5 mph - 0.00 in   Scattered Clouds
1:10 AM 53.6 °F 39.2 °F 58% 29.79 in 10.0 mi SSE 11.5 mph - 0.00 in   Mostly Cloudy
1:30 AM 53.6 °F 39.2 °F 58% 29.79 in 10.0 mi SSE 11.5 mph - 0.00 in   Scattered Clouds
1:50 AM 53.6 °F 39.2 °F 58% 29.79 in 10.0 mi SSE 10.4 mph - 0.00 in   Partly Cloudy
2:10 AM 53.6 °F 39.2 °F 58% 29.79 in 10.0 mi SSE 9.2 mph - 0.00 in   Scattered Clouds
2:30 AM 53.6 °F 39.2 °F 58% 29.79 in 10.0 mi SSE 10.4 mph - 0.00 in   Scattered Clouds
2:50 AM 53.6 °F 41.0 °F 62% 29.79 in 10.0 mi SSE 11.5 mph - 0.00 in   Partly Cloudy
3:10 AM 53.6 °F 41.0 °F 62% 29.79 in 10.0 mi SSE 12.7 mph - 0.00 in   Clear
3:30 AM 53.6 °F 41.0 °F 62% 29.78 in 10.0 mi SSE 10.4 mph - 0.00 in   Clear
3:50 AM 53.6 °F 41.0 °F 62% 29.78 in 10.0 mi SSE 9.2 mph - 0.00 in   Partly Cloudy
4:10 AM 53.6 °F 39.2 °F 58% 29.78 in 10.0 mi SSE 9.2 mph - 0.00 in   Partly Cloudy
4:30 AM 53.6 °F 39.2 °F 58% 29.77 in 10.0 mi SSE 8.1 mph - 0.00 in   Partly Cloudy
4:50 AM 53.6 °F 42.8 °F 67% 29.77 in 10.0 mi SSE 10.4 mph - 0.00 in   Partly Cloudy
5:10 AM 51.8 °F 42.8 °F 71% 29.77 in 10.0 mi SSE 11.5 mph - 0.00 in   Partly Cloudy
5:30 AM 53.6 °F 42.8 °F 67% 29.77 in 10.0 mi SSE 8.1 mph - 0.00 in   Clear
5:50 AM 53.6 °F 41.0 °F 62% 29.77 in 10.0 mi SSE 10.4 mph - 0.00 in   Clear
6:10 AM 51.8 °F 42.8 °F 71% 29.77 in 10.0 mi SSE 10.4 mph - 0.00 in   Partly Cloudy
6:30 AM 51.8 °F 42.8 °F 71% 29.77 in 10.0 mi SSE 8.1 mph - 0.00 in   Clear
6:50 AM 51.8 °F 42.8 °F 71% 29.77 in 10.0 mi SSE 9.2 mph - 0.00 in   Scattered Clouds
7:10 AM 51.8 °F 42.8 °F 71% 29.78 in 10.0 mi SSE 10.4 mph - 0.00 in   Mostly Cloudy
7:50 AM 51.8 °F 44.6 °F 76% 29.78 in 10.0 mi SSE 11.5 mph - 0.00 in   Scattered Clouds
8:10 AM 51.8 °F 44.6 °F 76% 29.78 in 10.0 mi SSE 10.4 mph - 0.00 in   Mostly Cloudy
8:30 AM 53.6 °F 44.6 °F 72% 29.77 in 10.0 mi SE 9.2 mph - 0.00 in   Mostly Cloudy
8:50 AM 53.6 °F 46.4 °F 77% 29.78 in 10.0 mi SE 9.2 mph - 0.00 in   Mostly Cloudy
9:10 AM 55.4 °F 44.6 °F 67% 29.78 in 10.0 mi SSE 13.8 mph - 0.00 in   Mostly Cloudy
9:30 AM 55.4 °F 44.6 °F 67% 29.79 in 10.0 mi SSE 11.5 mph - 0.00 in   Mostly Cloudy
9:50 AM 55.4 °F 46.4 °F 72% 29.78 in 10.0 mi SSE 11.5 mph - 0.00 in   Scattered Clouds
10:10 AM 55.4 °F 46.4 °F 72% 29.79 in 10.0 mi SSE 12.7 mph - 0.00 in   Scattered Clouds
10:30 AM 57.2 °F 46.4 °F 67% 29.78 in 10.0 mi SSE 10.4 mph - 0.00 in   Scattered Clouds
10:50 AM 57.2 °F 46.4 °F 67% 29.78 in 10.0 mi SSE 12.7 mph - 0.00 in   Partly Cloudy
11:10 AM 60.8 °F 46.4 °F 59% 29.78 in 10.0 mi South 11.5 mph - 0.00 in   Clear
11:30 AM 62.6 °F 46.4 °F 55% 29.77 in 10.0 mi SSE 10.4 mph 20.7 mph 0.00 in   Clear
11:50 AM 64.4 °F 46.4 °F 52% 29.76 in 10.0 mi SSE 12.7 mph - 0.00 in   Clear
12:10 PM 64.4 °F 46.4 °F 52% 29.76 in 10.0 mi South 13.8 mph - 0.00 in   Clear
12:30 PM 66.2 °F 46.4 °F 49% 29.75 in 10.0 mi South 11.5 mph 18.4 mph 0.00 in   Clear
12:50 PM 68.0 °F 46.4 °F 46% 29.74 in 10.0 mi SSE 11.5 mph - 0.00 in   Clear
1:10 PM 69.8 °F 46.4 °F 43% 29.73 in 10.0 mi SSE 15.0 mph 19.6 mph 0.00 in   Clear
1:30 PM 69.8 °F 44.6 °F 40% 29.72 in 10.0 mi South 17.3 mph 23.0 mph 0.00 in   Clear
1:50 PM 71.6 °F 44.6 °F 38% 29.71 in 10.0 mi South 17.3 mph 24.2 mph 0.00 in   Clear
2:10 PM 71.6 °F 44.6 °F 38% 29.70 in 10.0 mi South 18.4 mph 29.9 mph 0.00 in   Clear
2:30 PM 71.6 °F 44.6 °F 38% 29.70 in 10.0 mi South 16.1 mph 21.9 mph 0.00 in   Clear
2:50 PM 71.6 °F 44.6 °F 38% 29.69 in 10.0 mi South 18.4 mph 24.2 mph 0.00 in   Clear
3:10 PM 71.6 °F 44.6 °F 38% 29.68 in 10.0 mi SSW 15.0 mph 21.9 mph 0.00 in   Clear
3:30 PM 71.6 °F 42.8 °F 35% 29.67 in 10.0 mi South 16.1 mph 25.3 mph 0.00 in   Clear
3:50 PM 71.6 °F 44.6 °F 38% 29.67 in 10.0 mi South 16.1 mph 23.0 mph 0.00 in   Clear
4:10 PM 71.6 °F 44.6 °F 38% 29.67 in 10.0 mi South 16.1 mph 29.9 mph 0.00 in   Clear
4:30 PM 71.6 °F 44.6 °F 38% 29.66 in 10.0 mi South 15.0 mph 26.5 mph 0.00 in   Partly Cloudy
4:50 PM 71.6 °F 44.6 °F 38% 29.65 in 10.0 mi South 15.0 mph - 0.00 in   Partly Cloudy
5:10 PM 69.8 °F 44.6 °F 40% 29.65 in 10.0 mi South 15.0 mph 25.3 mph 0.00 in   Partly Cloudy
5:30 PM 69.8 °F 44.6 °F 40% 29.64 in 10.0 mi South 13.8 mph 21.9 mph 0.00 in   Partly Cloudy
5:50 PM 69.8 °F 46.4 °F 43% 29.63 in 10.0 mi SSE 10.4 mph 18.4 mph 0.00 in   Clear
6:10 PM 69.8 °F 46.4 °F 43% 29.63 in 10.0 mi SSE 11.5 mph 17.3 mph 0.00 in   Clear
6:30 PM 68.0 °F 46.4 °F 46% 29.64 in 10.0 mi South 10.4 mph - 0.00 in   Partly Cloudy
6:50 PM 66.2 °F 44.6 °F 46% 29.64 in 10.0 mi South 10.4 mph - 0.00 in   Mostly Cloudy
7:10 PM 66.2 °F 44.6 °F 46% 29.65 in 10.0 mi South 9.2 mph - 0.00 in   Mostly Cloudy
7:30 PM 66.2 °F 46.4 °F 49% 29.64 in 10.0 mi SSE 9.2 mph - 0.00 in   Mostly Cloudy
7:50 PM 66.2 °F 46.4 °F 49% 29.64 in 10.0 mi SSE 9.2 mph - 0.00 in   Scattered Clouds
8:10 PM 66.2 °F 46.4 °F 49% 29.64 in 10.0 mi SSE 9.2 mph - 0.00 in   Mostly Cloudy
8:30 PM 66.2 °F 46.4 °F 49% 29.65 in 10.0 mi South 6.9 mph - 0.00 in   Mostly Cloudy
8:50 PM 64.4 °F 46.4 °F 52% 29.65 in 10.0 mi South 3.5 mph - 0.00 in   Overcast
9:10 PM 62.6 °F 46.4 °F 55% 29.66 in 10.0 mi South 4.6 mph - 0.00 in   Overcast
9:30 PM 62.6 °F 48.2 °F 59% 29.64 in 10.0 mi Calm Calm - 0.00 in   Mostly Cloudy
9:50 PM 62.6 °F 46.4 °F 55% 29.62 in 10.0 mi ESE 5.8 mph - 0.00 in   Partly Cloudy
10:10 PM 64.4 °F 46.4 °F 52% 29.60 in 10.0 mi ESE 8.1 mph - 0.00 in   Partly Cloudy
10:30 PM 62.6 °F 48.2 °F 59% 29.59 in 10.0 mi SE 10.4 mph - 0.00 in   Scattered Clouds
10:50 PM 62.6 °F 48.2 °F 59% 29.58 in 10.0 mi SE 12.7 mph 17.3 mph 0.00 in   Partly Cloudy
11:10 PM 62.6 °F 48.2 °F 59% 29.57 in 10.0 mi SE 13.8 mph 19.6 mph 0.00 in   Partly Cloudy
11:30 PM 62.6 °F 48.2 °F 59% 29.56 in 10.0 mi SE 17.3 mph 25.3 mph 0.00 in   Partly Cloudy
11:50 PM 62.6 °F 48.2 °F 59% 29.56 in 10.0 mi SE 16.1 mph 21.9 mph 0.00 in   Partly Cloudy